COSMOS 2491 DEB, 57568

Orbit data source: Space-Track

COSMOS 2491 DEB, 57568 is space debris in LEO originally from a launch on Wed, 25 Dec 2013 UTC launched from the Plesetsk Missile And Space Complex (PKMTR). Debris objects in space refer to the collection of defunct objects orbiting the Earth. Examples of debris include non-operational satellites, rocket bodies, and fragments generated from explosions, collisions, or faulty payload assembly.

Loading next visibility...
Identifier
57568, 2013-076BF
Orbit
LEO
Country
Flag of CISCIS
Related business
Manufacturer
TsNIIKhM
Mission
Spacecraft
Bus & Motor
Unknown
Mass
Unknown
Launch date (UTC)
2013-12-25 (12 years ago)
Launch vehicle
Unknown
Launch site
Plesetsk Missile And Space Complex (PKMTR)
Object type
Payload
Rocket body
Debris
Shape & HBR
Unknown shape, 0.1 m
Radar Cross Section
Medium (>0.1 m² and <1 m²)

Expand to show TLE details & history
Last TLE update: 2 days ago

TLE from 2 days ago
0 COSMOS 2491 DEB
1 57568U 13076BF  26171.14835162 -.00000002  00000-0 -64765-4 0  9991
2 57568  82.4474 115.8266 0025412  85.4936 274.9059 12.66815637143661
Epoch: 2026-06-20T03:33Z
TLE epoch observation values (Epoch: 2026-06-20T03:33:37.579Z)
Latitude
-0.0001°
Longitude
154.05287°
Altitude
1,396.032 km
Speed
7.163 km/s
True Right ascension
07h 43m 18s
True Declination
0° 00' 00"
Sunlit
Object was in daylight at epoch
Visualization orbit readout
Latitude
Unknown
Longitude
Unknown
Altitude
Unknown
Speed
Unknown
Apparent Right ascension
Unknown
Apparent Declination
Unknown
Sunlit
N/A
Visualization observer readout
Local Sidereal Time
21:39:32
Azimuth
Unknown
Elevation
Unknown
Doppler factor
Unknown
Orbital elements
Apogee altitude
1,412.004 km
Perigee altitude
1,372.512 km
Semi-major axis
7,770.395 km
Eccentricity
0.00254
Inclination
82.4474°
RAAN
115.8266°
Arg. of periapsis
85.4936°
True anomaly
274.61569°
Mean anomaly
274.9059°
Eccentric anomaly
274.7608°
Mean motion
3.16868 °/min
Orbital period
113.61 mins
BSTAR
-0.000064765
Loading maneuver chart data...
Computing Atmospheric mass density...
Loading historical data...
Loading historical data...
Loading historical data...
Loading historical data...
Loading historical data...
Loading historical data...
Loading historical data...

Documentation

Showing up to 5 results
|